Regional Weather Roundup
Issued by NWS Kansas City/Pleasant Hill, MO

Home | Current Version | Previous Version | Graphics & Text | Print | Product List | Glossary Off
Versions: 1 2 3 4 5 6 7 8 9 10 11 12 13 14 15 16 17 18 19 20 21 22 23 24 25 26 27 28 29 30 31 32 33 34 35 36 37 38 39 40 41 42 43 44 45 46 47 48 49 50

000
ASUS43 KEAX 301411
RWREAX

WEATHER ROUNDUP FOR EASTERN KANSAS AND NORTHWEST MISSOURI
NATIONAL WEATHER SERVICE KANSAS CITY/PLEASANT HILL MO
900 AM CDT WED JUL 30 2014

KSZ040-057-103>105-MOZ028-029-037-043-301500-
...KANSAS CITY METROPOLITAN AREA...

CITY           SKY/WX    TMP DP  RH WIND       PRES   REMARKS
K.C. INTL      CLOUDY    65  60  84 N5        30.12S
K.C. DOWNTOWN  CLOUDY    69  58  67 N5        30.11S
LEES SUMMIT    CLOUDY    67  59  75 N5        30.13R
OLATHE - IXD   CLOUDY    68  62  81 N3        30.13R
OLATHE - OJC   CLOUDY    68  59  73 NE3       30.12R
LAWRENCE       CLOUDY    69  59  70 CALM      30.12S

$$

MOZ001>008-011>017-020>025-030>033-038>040-044>046-053-054-301500-
...NORTHERN AND CENTRAL MISSOURI...

CITY           SKY/WX    TMP DP  RH WIND       PRES   REMARKS
ST. JOSEPH     PTSUNNY   65  60  84 N5        30.13R
MOSBY          CLOUDY    64  61  88 CALM      30.12S
WARRENSBURG    CLOUDY    63  61  94 CALM      30.11S
WHITEMAN AFB   PTSUNNY   65  54  69 N5        30.10S
CLINTON        CLOUDY    66  63  88 CALM      30.11R
SEDALIA        CLOUDY    66  62  87 N3        30.11R
WARSAW         NOT AVBL
MARSHALL       CLOUDY    72  63  73 N3        30.12S
CHILLICOTHE      N/A     68  59  73 CALM      30.13S
MOBERLY        MOSUNNY   73  61  64 CALM      30.12R
KIRKSVILLE     PTSUNNY   71  59  65 N6        30.13R

$$

MOZ041-047>049-056>058-063>065-088>090-097-301500-
...EASTERN AND SOUTHERN MISSOURI...

CITY           SKY/WX    TMP DP  RH WIND       PRES   REMARKS
ST. LOUIS INTL PTSUNNY   77  58  51 CALM      30.11R
SPIRIT OF STL  PTSUNNY   72  60  66 CALM      30.09S
COLUMBIA       CLOUDY    69  60  73 N3        30.11R
JEFFERSON CITY CLOUDY    65  60  84 CALM      30.10S
MEXICO         MOSUNNY   72  63  73 CALM      30.11S
HANNIBAL       PTSUNNY   72  57  60 W3        30.11S
ROLLA          CLOUDY    65  58  78 SW5       30.10R
LEBANON        CLOUDY    70  61  73 CALM      30.11S
OSAGE BEACH    CLOUDY    66  57  72 CALM      30.10S
SPRINGFIELD    PTSUNNY   72  60  66 S6        30.10R HAZE
BRANSON        CLOUDY    68  64  88 CALM      30.12R
NEVADA         CLOUDY    70  63  78 S3        30.11F
JOPLIN         LGT RAIN  67  65  93 VRB5      30.11R
WEST PLAINS    PTSUNNY   67  59  75 SW5       30.13R
MALDEN         MOSUNNY   70  57  64 SE3       30.12S

$$

IAZ060-094-KSZ022-034>040-054-083-096-NEZ052-066-093-301500-
...KANSAS...SOUTHEAST NEBRASKA AND IOWA...

CITY           SKY/WX    TMP DP  RH WIND       PRES   REMARKS
TOPEKA         CLOUDY    68  61  78 N3        30.12S
MANHATTAN      CLOUDY    68  64  87 CALM      30.13R
EMPORIA        CLOUDY    67  63  87 E9        30.10S
CHANUTE        CLOUDY    70  63  78 E7        30.09F
WICHITA        CLOUDY    70  61  73 E5        30.09R
OMAHA          MOSUNNY   65  58  78 NW5       30.16R
LINCOLN        SUNNY     68  57  68 N3        30.17R
FALLS CITY     PTSUNNY   70  58  65 N6        30.14R
LAMONI         SUNNY     67  58  72 N7        30.14R
DES MOINES     MOSUNNY   68  57  68 NW5       30.12R

$$



USA.gov is the U.S. government's official web portal to all federal, state and local government web resources and services.